Deer Park, WA
on Wednesday, February 13, 2013

Wednesday
Previous Day Next Day
Daily Summary
 ActualAverageRecord
Temperature
Mean Temperature °F 30°F  
Max Temperature 43°F 39°F 45°F (2014)
Min Temperature 18°F 21°F 8°F (2004)
Degree Days
Heating Degree Days 34 35  
Month to date heating degree days 445 463  
Since 1 July heating degree days 4553 4859  
Cooling Degree Days 0 0  
Month to date cooling degree days 0 0  
Year to date cooling degree days 0 0  
Moisture
Dew Point 27°F   
Average Humidity 81    
Maximum Humidity 100    
Minimum Humidity 62    
Precipitation
Precipitation 0.00 in 0.05 in 0.13 in (2006)
Month to date precipitation 0.03 0.84  
Year to date precipitation 1.53 3.47  
Wind
Wind Speed 4 mph   
Max Wind Speed 13 mph   
Max Gust Speed 17 mph   
Visibility 9 miles   
Events     

Key: T is trace of precipitation, MM is missing value
Source: NWS Daily Summary
Time(PST)TemperatureDew PointHumidity Pressure Visibility Wind DirectionWind SpeedGust SpeedPrecipitationEvents Conditions
12:19 AM 37.4°F 33.8°F 87% 30.13 in 10.0 miles SSE 9.2 mph - N/A   Overcast
12:53 AM 37.0°F 33.1°F 86% 30.18 in 10.0 miles SSE 10.4 mph - N/A   Overcast
1:53 AM 36.0°F 33.1°F 89% 30.18 in 10.0 miles SSE 9.2 mph - N/A   Partly Cloudy
2:53 AM 35.1°F 32.0°F 89% 30.16 in 10.0 miles SSE 10.4 mph - N/A   Clear
3:53 AM 34.0°F 30.9°F 89% 30.17 in 10.0 miles SE 9.2 mph - N/A   Clear
4:53 AM 34.0°F 32.0°F 92% 30.18 in 10.0 miles South 10.4 mph - N/A   Clear
5:53 AM 32.0°F 30.0°F 92% 30.19 in 10.0 miles SSW 9.2 mph - N/A   Clear
6:53 AM 28.9°F 28.0°F 96% 30.21 in 10.0 miles Calm Calm - N/A   Clear
7:09 AM 24.8°F 24.8°F 100% 30.14 in 0.8 miles NE 4.6 mph - N/A   Mist
7:18 AM 24.8°F 24.8°F 100% 30.15 in 1.2 miles East 3.5 mph - N/A   Clear
7:21 AM 24.8°F 24.8°F 100% 30.15 in 4.0 miles ESE 3.5 mph - N/A   Clear
7:53 AM 27.0°F 25.0°F 92% 30.22 in 10.0 miles Calm Calm - N/A   Clear
8:53 AM 35.1°F 30.9°F 85% 30.22 in 10.0 miles SE 5.8 mph - N/A   Clear
9:53 AM 36.0°F 32.0°F 86% 30.25 in 10.0 miles SSW 4.6 mph - N/A   Clear
10:53 AM 37.9°F 32.0°F 79% 30.25 in 10.0 miles SSW 3.5 mph - N/A   Clear
11:53 AM 39.9°F 32.0°F 73% 30.24 in 10.0 miles SSW 3.5 mph - N/A   Clear
12:53 PM 39.9°F 30.9°F 70% 30.23 in 10.0 miles Calm Calm - N/A   Clear
1:53 PM 43.0°F 30.9°F 62% 30.21 in 10.0 miles Calm Calm - N/A   Clear
2:53 PM 39.9°F 30.9°F 70% 30.23 in 10.0 miles South 5.8 mph - N/A   Scattered Clouds
3:53 PM 37.9°F 30.0°F 73% 30.25 in 10.0 miles SSE 4.6 mph - N/A   Clear
4:53 PM 37.9°F 28.9°F 70% 30.26 in 10.0 miles SE 4.6 mph - N/A   Clear
5:53 PM 35.1°F 27.0°F 72% 30.28 in 10.0 miles ESE 3.5 mph - N/A   Clear
6:53 PM 28.9°F 25.0°F 85% 30.31 in 10.0 miles Calm Calm - N/A   Clear
7:53 PM 28.0°F 25.0°F 88% 30.33 in 10.0 miles Calm Calm - N/A   Clear
8:53 PM 25.0°F 23.0°F 92% 30.34 in 10.0 miles Calm Calm - N/A   Clear
9:53 PM 21.9°F 21.0°F 96% 30.36 in 10.0 miles Calm Calm - N/A   Clear
10:53 PM 19.0°F 19.0°F 100% 30.38 in 5.0 miles Calm Calm - N/A   Clear
11:03 PM 21.2°F 19.4°F 93% 30.31 in 2.5 miles West 3.5 mph - N/A   Clear
11:10 PM 19.4°F 19.4°F 100% 30.31 in 10.0 miles Calm Calm - N/A   Clear
11:19 PM 17.6°F 17.6°F 100% 30.31 in 2.5 miles ENE 5.8 mph - N/A   Partly Cloudy
11:33 PM 21.2°F 19.4°F 93% 30.32 in 10.0 miles NNE 3.5 mph - N/A   Clear
11:53 PM 19.9°F 18.0°F 92% 30.40 in 10.0 miles ENE 3.5 mph - N/A   Clear
Moon Phase
Feb. 13 Feb. 17 Feb. 25 Mar. 04 Mar. 11
Sunrise:06:58 AM (PST) Moon Rise:08:09 AM (PST)2/13
Sunset:05:09 PM (PST) Moon Set:09:41 PM (PST)2/13

Copyright © 2014 The Weather Underground, Inc.